GEFSGL_500_meanwind_108.txt.gz
Wind_Speed
11 12 14 15 16 17 18 17 17 17 18 18 18 18 19 19 19 19 20 20 20 20 20 20 20 20 20 20 20 20 20 19 19 19 19 18 18 19 19 20 20 20 19
11 12 14 15 16 17 18 18 18 18 18 19 19 20 20 21 22 22 23 23 23 24 23 24 24 24 24 24 24 23 23 22 22 22 22 22 22 22 22 22 23 23 23
11 12 12 14 16 17 18 18 19 20 20 21 21 22 23 24 24 25 26 26 27 27 27 28 28 28 28 27 27 27 27 26 26 26 26 26 26 26 26 25 26 26 26
11 12 13 14 15 16 18 18 20 21 22 23 24 25 25 26 27 28 28 29 30 30 31 31 31 31 31 31 31 30 30 29 29 29 29 29 29 29 29 29 29 29 29
14 14 16 16 17 18 19 20 22 24 25 26 27 27 28 29 30 31 31 32 33 33 33 34 34 34 34 34 33 33 32 32 32 32 32 31 31 32 32 32 32 32 32
16 17 18 18 19 20 21 22 24 25 27 28 29 30 30 32 33 33 34 35 35 35 36 36 36 36 36 36 36 36 36 35 35 35 35 35 35 35 35 35 35 35 35
18 19 19 20 20 21 22 23 24 26 28 29 30 32 33 34 34 35 37 36 36 37 38 38 38 39 39 39 39 38 38 38 38 39 38 38 38 38 38 38 38 39 38
19 21 21 21 22 23 24 24 25 26 28 29 31 33 34 35 37 38 38 38 39 39 40 40 40 40 41 41 41 41 41 42 42 42 42 42 42 42 42 42 42 42 42
20 22 23 23 24 25 25 26 27 28 28 30 31 33 34 36 37 37 38 38 39 40 40 40 41 41 41 42 42 43 43 44 45 45 44 44 44 45 45 45 45 45 45
22 23 25 26 26 27 27 28 29 29 30 32 33 34 34 36 38 39 39 39 39 39 40 40 41 42 42 43 43 44 45 46 47 46 46 47 47 47 48 48 49 49 49
24 25 25 27 28 29 29 30 31 32 33 34 35 36 37 38 39 39 40 41 41 42 42 42 42 43 44 45 46 45 46 47 49 49 49 49 50 51 52 52 53 53 53
25 26 27 27 28 29 30 31 32 33 35 35 37 38 39 39 40 40 42 42 43 43 44 45 45 45 46 47 47 47 49 50 51 51 50 51 52 54 55 56 57 57 57
26 26 27 28 29 30 31 33 34 34 35 35 37 39 40 40 41 42 42 43 44 44 44 45 46 46 47 48 48 49 50 51 51 51 52 53 54 56 57 58 59 59 58
26 27 28 29 30 31 32 34 35 36 37 37 38 38 39 40 40 41 42 43 44 45 45 46 47 48 49 49 50 51 52 52 53 54 54 55 56 57 57 58 59 59 59
28 28 29 30 31 32 34 35 36 37 38 39 39 40 40 41 41 42 43 44 45 46 47 48 49 49 49 51 52 52 53 55 56 56 57 57 58 58 58 58 59 60 61
29 30 30 31 32 32 34 35 36 37 38 39 39 40 41 42 42 43 44 46 47 47 48 48 49 50 51 53 54 54 55 56 56 57 57 57 57 57 57 58 59 59 59
30 30 31 32 32 33 34 35 36 37 39 39 40 41 42 43 43 44 45 46 47 47 48 49 50 50 51 52 53 53 54 54 55 55 56 55 55 56 56 56 57 57 57
31 32 33 34 34 35 36 37 38 39 40 41 42 43 44 45 46 46 47 48 48 49 50 50 50 51 51 51 51 51 52 53 54 54 54 54 54 54 54 54 54 54 54
32 33 34 35 36 37 38 39 40 42 43 44 45 45 46 47 48 49 49 49 49 50 50 50 50 51 50 50 49 50 50 51 52 52 52 52 51 51 51 51 50 50 50
35 36 37 38 39 40 41 42 43 44 45 45 46 47 48 48 49 49 50 50 50 50 49 49 49 48 48 48 48 48 49 48 48 47 47 47 47 47 47 47 46 46 46
36 37 39 40 41 43 44 45 45 46 46 47 47 48 48 48 49 49 49 49 49 49 49 49 48 48 47 47 46 46 45 45 44 44 43 43 43 43 43 43 44 44 43
38 40 41 43 44 45 45 45 46 46 47 47 48 48 48 48 47 47 46 46 46 46 45 45 45 44 44 43 43 42 42 41 41 40 40 40 39 39 39 40 40 39 38
40 41 42 43 43 44 44 45 45 45 46 45 45 44 44 43 42 42 42 42 41 41 41 41 41 40 40 40 39 39 38 38 37 37 36 36 36 36 36 35 35 35 35
40 41 41 41 42 42 42 42 42 42 42 41 41 40 39 39 38 38 38 38 38 38 38 37 37 37 36 36 35 35 34 34 34 33 33 33 32 32 32 32 32 32 31
39 40 40 40 40 40 40 40 40 40 40 39 38 38 37 36 36 36 36 35 35 35 34 33 33 33 32 32 31 31 31 30 30 29 29 29 29 29 29 29 28 27 27
39 39 39 39 39 39 38 38 38 37 37 36 35 35 34 34 34 34 33 32 32 31 30 29 29 29 28 28 28 27 27 27 27 26 26 26 26 26 25 25 24 23 23

GEFSGL_500_meanwind_114.txt.gz
Wind_Speed
12 13 15 15 16 15 15 16 16 16 16 17 17 17 17 17 18 18 19 19 19 19 20 20 20 20 20 20 21 21 21 21 21 21 21 21 21 21 21 21 21 21 20
11 12 13 14 15 15 15 16 17 17 17 17 18 18 18 18 19 20 20 21 21 22 23 23 23 24 24 24 24 25 25 25 25 25 25 25 25 25 25 25 25 25 24
10 12 12 13 14 14 16 17 18 18 18 18 19 19 19 20 20 21 22 23 24 25 25 26 26 26 27 28 28 28 29 29 29 29 29 29 29 29 29 28 28 28 28
9 10 11 12 13 14 15 15 16 18 19 20 20 21 22 22 23 24 25 26 26 27 28 28 29 29 30 31 31 32 32 33 33 33 32 32 32 32 32 32 32 32 31
9 10 11 13 14 14 14 15 17 18 20 21 22 24 24 25 26 27 27 28 29 30 31 31 32 33 33 34 34 34 35 35 35 35 35 35 35 36 35 35 35 35 35
11 12 13 14 14 15 16 17 18 19 20 22 23 24 26 27 28 29 30 31 32 33 33 34 35 36 36 36 37 38 38 38 37 37 38 38 38 38 38 38 38 38 38
13 13 14 15 16 17 18 19 20 20 21 23 23 25 26 28 30 31 33 34 34 35 36 37 37 38 39 39 39 39 40 40 40 40 40 40 40 39 39 40 40 40 40
15 16 16 17 18 20 20 21 23 23 24 25 26 27 28 29 31 32 33 34 36 37 38 39 39 40 39 40 41 40 40 40 41 41 41 42 42 41 41 41 42 43 43
18 19 19 19 20 21 21 23 24 25 26 28 28 29 30 31 32 34 34 35 36 37 38 39 39 40 40 40 40 41 41 42 42 43 43 43 44 44 44 44 45 46 46
21 21 22 22 22 23 23 25 26 27 29 31 31 32 32 32 33 35 36 37 37 38 38 39 40 41 42 42 43 43 44 44 45 46 45 45 46 46 46 47 47 48 48
23 24 24 25 25 26 26 28 29 30 31 32 33 33 34 35 36 37 39 40 40 40 41 42 42 44 45 45 45 45 45 46 47 48 47 47 48 48 48 49 49 49 49
26 26 25 26 27 28 28 30 30 31 32 33 34 35 35 37 38 39 40 41 42 42 42 43 44 45 46 46 47 47 48 48 49 49 50 49 49 49 49 49 50 50 49
26 26 26 27 28 29 30 31 32 33 34 35 36 37 38 39 41 42 42 43 44 44 44 45 46 47 48 49 49 50 49 49 49 50 50 50 51 51 51 51 52 52 52
27 28 28 28 29 30 31 32 33 34 35 35 37 38 39 41 42 43 44 45 46 46 46 46 47 48 48 49 49 50 51 51 51 51 52 52 52 52 53 53 53 53 54
27 28 28 29 30 31 32 33 33 34 35 36 37 39 40 41 42 44 44 45 45 46 47 47 48 48 50 50 49 49 50 51 51 51 52 53 53 53 53 53 54 54 54
27 27 28 29 30 31 32 32 33 35 36 37 38 40 41 42 43 43 44 45 46 47 48 49 49 49 50 50 51 51 51 51 52 52 52 52 52 52 53 53 53 53 53
28 28 29 29 30 31 32 33 34 35 36 38 40 41 42 43 44 45 46 47 48 48 49 49 49 50 50 50 50 50 50 50 50 50 51 51 50 51 51 52 51 51 51
26 27 28 29 30 32 33 34 36 37 39 40 42 43 44 45 46 47 47 48 49 49 49 50 50 50 50 50 50 50 50 50 50 50 50 50 50 50 50 51 50 50 49
25 27 28 30 32 34 35 36 38 40 42 43 44 44 45 46 47 47 48 48 49 49 49 49 49 49 49 49 49 49 49 49 49 49 49 49 49 49 49 49 48 48 47
27 28 30 32 34 36 37 38 40 41 42 43 44 45 46 47 47 47 47 47 48 48 48 48 48 47 47 46 46 46 46 46 46 46 46 46 46 46 46 46 46 45 44
29 31 33 34 36 37 38 40 41 42 43 44 44 45 45 46 46 46 46 46 46 46 45 44 44 44 43 43 43 43 43 43 43 43 43 43 43 43 43 43 42 42 41
31 33 34 36 37 39 40 41 42 43 44 44 44 44 44 44 45 45 45 44 43 42 41 41 41 40 40 40 39 39 39 39 40 40 40 40 40 39 39 38 38 38 38
33 35 36 38 39 40 41 43 43 43 43 43 43 43 42 42 42 41 41 40 40 38 37 37 37 37 36 36 36 36 36 35 34 34 34 34 34 34 34 34 34 34 34
35 37 38 40 41 42 43 43 43 42 42 42 41 41 40 39 39 38 38 37 36 35 35 34 34 34 33 33 32 32 32 32 32 31 30 30 30 30 30 30 30 30 30
37 39 40 41 42 42 42 42 41 41 40 39 39 38 37 37 36 35 34 33 32 32 32 32 31 30 30 30 30 30 30 29 28 27 27 27 27 27 27 27 27 28 28
39 40 41 41 41 41 40 40 39 38 37 36 35 34 34 33 32 31 30 29 29 29 29 29 28 28 28 28 28 27 27 26 25 25 25 25 25 24 24 24 24 25 25

GEFSGL_500_meanwind_120.txt.gz
Wind_Speed
8 9 11 12 14 15 15 16 16 16 16 15 15 15 14 14 15 16 17 17 17 18 18 18 19 19 19 19 19 20 20 21 21 21 21 21 21 21 21 21 21 21 21
7 8 10 11 13 14 14 16 16 16 16 16 16 16 15 16 16 17 18 19 19 19 20 20 21 21 22 22 23 23 24 24 24 24 24 24 24 24 24 24 24 24 25
7 8 9 11 12 12 13 14 15 16 17 17 17 18 18 18 18 18 19 20 20 20 21 22 22 23 24 25 26 26 27 28 28 27 27 28 28 28 28 28 28 28 28
6 8 9 10 11 12 13 13 14 15 15 16 18 18 19 19 19 20 21 22 22 23 24 24 25 26 27 28 29 29 30 30 31 31 31 31 31 31 31 31 30 31 31
7 8 10 11 12 12 12 13 14 14 15 15 16 17 18 19 20 21 22 23 23 24 25 26 27 28 30 31 31 32 33 33 34 34 34 34 34 34 34 34 34 34 34
9 9 10 11 12 13 13 13 14 15 16 16 16 17 18 19 20 22 23 24 24 26 27 29 29 30 32 34 35 35 35 35 36 37 37 37 37 38 38 38 37 36 36
11 10 10 12 13 14 15 14 15 15 16 17 18 19 19 20 22 24 24 25 26 27 29 30 31 32 32 34 35 36 36 36 37 38 39 39 40 40 41 41 41 40 39
13 13 12 12 13 14 14 15 16 17 18 19 20 21 21 22 24 25 26 27 27 29 29 30 31 32 32 34 35 36 37 38 39 39 39 41 42 42 43 44 45 44 43
16 16 15 15 15 16 17 17 18 19 20 21 22 23 24 24 26 27 28 29 29 30 32 32 33 34 35 36 37 38 38 39 40 41 41 42 42 43 44 45 46 47 46
18 19 18 19 19 20 20 20 21 21 22 23 24 24 25 26 27 29 30 32 32 33 35 36 36 37 38 39 39 41 41 42 43 43 44 44 45 45 45 46 47 47 48
22 21 20 20 21 21 22 23 23 24 25 26 27 28 29 29 30 31 32 34 35 37 38 38 39 40 41 41 42 43 43 44 45 46 46 47 47 47 47 47 48 48 48
24 23 22 23 23 23 24 25 26 27 29 30 30 31 31 32 32 33 34 35 37 39 39 40 40 41 42 43 44 44 45 46 47 47 48 48 48 49 49 49 49 50 51
25 25 25 25 26 26 27 27 29 30 30 31 32 32 33 34 34 34 35 36 37 38 40 40 42 43 45 46 46 47 48 48 49 49 49 50 51 51 51 51 51 51 51
27 27 28 27 27 28 30 31 31 32 33 33 34 34 34 35 35 36 37 38 38 40 41 43 44 45 46 47 48 48 49 49 50 50 50 51 52 52 53 53 52 52 52
28 28 28 29 30 30 30 31 31 32 33 33 33 34 34 34 35 36 38 39 41 43 44 46 47 48 49 49 49 49 49 49 50 51 51 52 52 53 53 53 52 52 52
29 29 29 30 29 30 30 31 31 31 32 32 33 33 34 35 37 38 40 41 43 45 46 48 49 50 51 51 51 51 51 52 52 53 52 52 52 52 52 52 52 51 51
28 28 28 28 30 30 30 31 32 32 32 32 33 35 36 38 39 40 42 43 45 46 48 49 50 51 51 51 51 52 52 52 52 52 51 51 50 50 50 49 48 49 49
27 27 27 27 28 28 29 30 31 31 32 33 35 37 38 40 41 43 44 45 47 48 49 50 51 51 51 51 51 51 51 51 50 50 49 49 48 48 48 48 48 48 49
24 24 24 25 26 27 28 29 31 32 34 35 36 38 40 42 43 45 46 47 48 49 50 50 51 50 50 50 50 50 49 49 48 48 48 48 48 47 47 47 47 47 47
20 21 22 24 26 27 29 30 32 34 35 37 39 41 42 44 45 46 47 48 49 49 49 49 49 49 49 49 48 48 47 47 47 46 46 46 45 45 45 45 45 44 43
20 22 24 26 28 29 31 32 34 36 38 40 41 43 45 46 46 47 47 47 46 46 46 46 46 45 44 43 43 43 43 43 42 42 42 41 41 41 41 40 40 39 38
22 24 26 28 29 31 33 35 37 39 40 41 43 44 44 45 46 46 46 45 44 44 43 43 42 41 39 39 39 40 40 39 39 38 38 38 38 38 37 37 36 35 34
25 27 28 30 32 33 35 36 38 39 41 42 43 43 43 44 44 44 43 43 42 42 41 39 39 38 38 38 37 37 37 36 36 36 36 36 36 35 34 33 33 32 31
27 29 31 32 33 35 36 38 39 40 42 42 42 42 42 42 41 40 39 38 38 37 37 37 36 36 36 36 36 36 35 35 35 35 34 33 33 32 31 30 29 29 28
29 31 32 34 35 37 38 39 40 40 40 40 40 39 38 38 36 35 35 35 35 34 34 34 34 34 34 34 34 33 33 33 32 32 31 30 29 29 28 27 27 27 27
31 33 34 35 36 37 38 38 38 38 38 38 37 35 35 34 34 33 33 32 33 33 33 33 33 33 33 32 31 31 30 30 29 28 27 27 27 26 26 25 25 25 25

GEFSGL_500_meanwind_126.txt.gz
Wind_Speed
7 9 11 12 14 16 18 18 19 21 21 21 19 18 17 17 17 17 17 17 17 17 17 17 16 16 17 17 17 17 17 16 16 17 17 18 18 19 19 20 20 21 21
7 8 10 12 14 15 17 18 18 19 20 20 20 19 18 18 18 18 19 19 19 19 19 19 19 19 19 19 19 20 20 20 20 20 21 21 22 22 22 23 23 24 24
7 8 9 11 13 14 16 17 18 19 20 20 20 20 20 20 20 20 20 20 20 20 21 21 21 22 22 22 22 22 23 23 23 24 24 25 25 26 26 26 26 27 27
8 9 9 10 12 14 15 16 17 18 19 20 20 20 20 20 20 21 21 20 21 21 22 23 24 24 24 24 25 25 25 25 26 27 28 28 29 30 30 30 30 31 31
9 10 11 11 12 14 15 16 16 17 18 19 20 20 20 20 21 21 21 21 22 22 23 23 24 25 25 26 26 27 27 28 29 30 30 30 31 32 32 32 33 33 33
10 11 12 11 12 13 15 16 17 17 18 20 21 21 20 20 21 22 22 23 23 23 23 23 24 25 26 26 27 29 30 30 31 32 32 32 33 34 35 35 35 35 35
12 12 12 12 12 13 14 16 17 18 19 19 19 20 20 21 22 22 23 24 25 26 26 25 26 26 27 28 29 30 31 31 32 33 34 35 35 36 37 37 38 38 38
13 14 14 14 14 14 15 17 18 19 19 19 20 20 22 23 23 24 25 26 26 26 27 27 27 28 29 30 31 32 33 34 35 36 37 37 38 38 39 39 40 41 41
16 16 16 16 16 16 17 18 18 19 20 20 21 22 23 24 25 26 26 27 27 28 28 29 30 30 31 32 33 35 36 37 37 38 39 39 40 41 41 42 43 44 44
18 18 17 17 17 17 18 19 19 20 21 22 23 24 24 24 26 27 28 29 29 30 30 31 32 33 34 35 36 38 39 39 39 40 40 41 42 43 44 45 46 46 47
19 19 18 18 19 20 20 20 21 21 22 23 24 24 25 26 27 27 29 30 32 32 32 34 34 35 36 37 38 39 39 39 40 41 42 43 44 45 47 47 48 49 49
19 18 18 20 19 19 21 22 22 23 23 24 25 26 26 28 29 30 31 32 33 34 35 36 37 38 39 39 39 40 41 41 42 44 45 46 47 48 48 49 50 51 52
21 21 22 21 22 23 22 22 22 24 24 25 27 28 29 30 31 32 32 32 33 34 36 37 38 38 39 39 39 40 43 44 45 46 47 48 49 50 50 51 52 53 54
23 23 23 23 23 23 25 25 25 25 26 28 29 30 31 31 31 32 32 33 34 35 36 38 38 39 39 40 42 44 45 47 49 50 51 51 52 53 53 54 55 55 55
22 22 23 24 24 25 26 26 26 27 28 28 30 31 31 32 32 33 34 34 35 36 38 39 39 41 42 44 45 46 48 49 51 52 53 53 54 55 55 56 56 56 55
23 23 23 24 25 26 27 27 28 29 30 29 30 31 31 32 32 33 34 35 37 38 39 40 41 43 45 46 48 49 51 52 53 53 54 54 54 54 54 54 54 53 53
23 23 24 25 25 26 27 27 27 28 29 30 30 30 31 32 33 34 35 36 38 39 41 42 44 46 47 49 50 51 52 52 53 53 53 53 53 52 51 51 51 50 50
23 23 24 24 24 24 25 25 26 27 28 28 29 30 31 32 34 36 37 39 41 42 44 45 47 48 49 50 51 51 51 51 51 51 51 51 50 49 49 48 47 47 47
23 23 23 22 22 22 23 23 24 25 27 28 30 31 33 34 37 38 40 42 43 45 46 47 48 49 50 51 52 51 51 50 50 49 49 49 48 47 46 46 45 45 45
20 20 20 20 20 21 22 23 25 26 28 30 31 32 34 37 39 40 42 44 45 47 48 49 49 50 50 50 50 49 49 48 47 47 46 45 44 44 43 43 42 43 43
18 19 19 19 21 22 24 25 26 28 29 31 33 35 37 39 40 42 44 45 46 47 47 47 47 47 46 46 45 44 44 43 43 43 42 41 41 40 40 40 40 40 39
17 18 19 19 21 22 24 26 28 30 32 34 36 38 39 41 42 43 44 44 45 45 44 43 43 42 42 41 41 40 40 40 40 39 39 38 38 38 38 38 37 37 36
17 18 19 21 22 24 26 28 30 32 34 36 37 38 39 40 41 42 42 42 41 41 40 39 38 38 39 39 39 39 38 37 37 37 36 36 36 35 35 34 34 33 32
18 20 22 24 25 27 29 31 32 33 34 36 37 38 39 40 40 40 40 39 38 37 37 37 37 37 37 37 37 37 36 35 34 34 33 33 32 32 32 31 30 30 29
20 22 24 26 27 29 30 31 33 34 35 36 37 37 38 38 38 38 37 37 36 35 35 35 35 35 34 34 34 34 33 32 31 30 30 30 29 29 28 27 27 26 26
23 24 26 27 29 30 31 32 34 35 35 35 36 36 36 35 35 35 34 34 33 33 33 32 32 32 32 33 32 32 31 30 29 29 28 27 27 26 26 25 25 24 24

GEFSGL_500_meanwind_132.txt.gz
Wind_Speed
4 5 7 10 12 13 14 15 16 18 19 19 20 20 20 20 19 19 18 18 18 18 18 19 18 18 19 19 19 19 19 19 19 20 20 20 20 20 21 22 22 23 24
5 6 7 9 11 12 13 15 16 17 19 20 21 21 22 22 21 20 20 20 20 20 21 21 21 22 22 22 22 22 22 22 22 22 22 23 23 24 24 25 25 26 27
6 7 8 9 11 13 14 15 16 16 18 20 21 22 23 23 22 21 21 21 22 22 22 22 23 23 23 24 24 24 24 24 24 24 25 25 26 27 27 28 28 29 30
8 8 9 10 11 12 13 14 16 17 18 19 21 22 22 22 22 22 22 23 23 23 23 23 23 23 24 24 25 26 26 26 27 27 27 28 29 30 30 31 31 32 32
10 10 11 11 12 13 14 15 16 17 18 19 20 21 22 22 23 23 22 22 23 24 24 23 24 24 25 25 26 27 28 28 29 29 29 30 31 32 33 34 34 34 35
12 12 12 12 13 14 15 16 16 17 18 20 21 22 22 22 24 24 24 24 23 24 25 25 25 26 26 27 27 28 29 30 31 31 32 33 34 35 36 36 37 37 37
14 14 15 15 15 16 17 17 17 18 19 20 21 21 21 22 23 25 25 25 25 25 26 27 28 28 28 28 29 30 31 32 33 34 35 36 37 38 38 39 40 40 40
16 16 16 16 17 17 17 17 17 18 19 20 21 22 23 23 24 24 25 26 27 27 28 28 29 30 30 31 32 33 34 35 36 37 38 39 40 41 42 42 43 43 44
16 17 18 18 18 18 18 19 18 19 20 20 23 24 25 24 25 25 25 26 27 29 29 30 32 32 33 35 36 36 37 39 40 40 41 42 43 44 44 44 45 46 47
19 18 18 18 18 18 19 19 19 20 21 22 23 24 24 25 25 26 27 29 30 30 30 31 33 33 34 35 37 38 39 40 42 43 44 44 45 45 46 47 47 48 49
21 20 20 20 19 20 20 20 20 21 22 22 24 24 25 26 27 28 29 30 30 31 32 32 33 35 36 38 40 40 41 42 43 44 45 46 47 47 48 49 49 50 51
21 21 20 21 22 22 22 22 21 22 23 24 24 25 25 25 26 27 28 29 29 30 32 34 36 37 38 40 41 42 42 43 45 46 46 47 48 49 50 51 52 52 53
22 21 21 22 22 23 24 24 23 23 25 25 25 25 26 26 27 27 28 29 30 32 34 35 36 37 39 41 42 43 44 45 46 47 48 49 50 51 53 54 55 57 58
22 21 22 23 23 24 23 22 23 24 24 24 25 26 26 27 28 30 30 30 32 33 34 36 37 39 41 42 44 44 45 46 47 48 49 50 52 53 55 56 57 58 59
22 22 23 23 24 24 23 22 21 22 22 23 25 26 26 28 29 31 32 33 33 34 36 38 40 41 42 43 44 46 47 48 50 50 52 53 55 56 57 58 58 58 58
21 22 22 23 23 23 23 24 24 24 24 25 26 26 27 29 30 31 33 34 36 37 38 39 40 42 43 44 46 48 49 50 51 53 54 55 56 57 57 58 58 58 58
21 22 22 23 23 23 22 22 23 24 24 25 27 28 29 31 32 33 34 35 36 37 39 40 42 43 45 46 48 49 50 51 52 54 55 56 56 57 57 57 57 56 56
20 20 21 22 22 22 22 23 23 24 25 26 27 29 30 31 32 33 34 35 36 38 40 42 43 45 46 48 49 50 51 52 53 53 54 54 54 54 54 53 53 52 51
19 20 21 21 22 23 23 24 24 25 26 27 28 29 30 31 32 34 35 37 38 40 42 43 44 46 47 48 49 49 50 50 51 51 50 50 49 49 48 48 48 47 46
18 19 20 21 22 22 23 24 24 25 26 27 28 29 31 32 33 35 37 38 39 41 42 44 45 46 47 47 47 47 47 47 47 46 45 45 45 44 44 44 43 43 42
18 18 19 20 21 22 23 24 25 26 27 28 29 31 32 33 35 36 37 39 40 42 43 44 44 44 44 45 45 44 44 43 43 43 42 42 42 42 41 41 41 40 39
17 18 19 20 21 22 24 25 26 27 28 29 30 31 33 35 36 38 39 40 41 42 42 42 42 42 42 42 41 41 40 40 40 40 39 39 39 39 38 38 38 37 36
17 18 19 21 22 23 24 25 27 28 29 31 32 34 35 36 38 39 40 40 40 40 40 40 40 40 39 39 38 38 37 37 37 36 36 37 37 36 35 35 34 33 33
18 19 20 21 23 24 25 27 28 30 31 32 34 35 36 36 37 38 38 38 38 38 38 38 37 36 36 36 36 35 35 34 34 34 34 34 34 34 33 32 32 31 31
19 21 22 24 25 26 27 29 30 31 32 34 35 35 36 36 36 36 37 37 36 36 35 35 34 34 34 34 33 33 33 32 32 32 33 33 32 32 31 31 30 29 29
21 23 24 25 27 28 29 30 31 32 33 34 34 34 34 35 35 35 35 34 34 34 33 33 33 33 33 32 31 31 31 31 31 31 31 31 31 30 29 29 28 27 27

GEFSGL_500_meanwind_138.txt.gz
Wind_Speed
6 6 7 8 10 12 13 14 15 16 17 18 19 20 20 19 20 21 20 20 19 19 19 19 19 20 19 20 20 20 20 20 21 20 20 20 21 21 21 22 22 22 22
7 7 8 8 9 11 13 14 15 16 17 18 19 20 20 20 19 20 21 22 21 21 21 21 21 20 21 21 22 22 22 22 23 24 24 23 24 24 24 25 25 25 26
8 8 9 10 11 12 13 14 15 16 17 18 19 19 20 21 22 22 23 23 23 23 22 23 23 23 23 24 24 24 24 24 25 25 26 26 26 27 27 27 28 28 29
10 10 10 11 12 13 14 14 15 16 17 18 19 19 20 22 23 24 24 24 25 24 24 24 24 25 25 25 25 25 26 26 27 27 28 29 29 30 30 31 31 31 32
12 12 12 12 13 14 14 15 16 16 17 19 20 21 21 22 23 24 24 25 25 26 26 26 25 25 26 27 27 27 28 28 29 29 30 31 31 31 32 33 34 35 36
14 14 14 14 14 15 15 17 17 18 19 19 20 21 21 22 23 24 25 25 26 27 27 27 27 27 27 28 28 29 30 30 31 31 31 33 34 34 35 36 37 38 38
15 15 15 16 17 17 17 18 18 19 19 21 20 21 22 23 23 24 25 26 27 27 28 28 28 28 28 29 30 30 31 32 32 33 34 35 36 36 37 38 38 39 40
16 17 18 18 18 19 19 19 20 21 21 21 21 21 23 23 23 24 25 25 25 26 27 27 27 28 29 30 31 32 34 34 34 36 37 38 40 40 41 41 42 43 44
19 19 19 20 20 20 20 20 21 22 23 22 22 22 22 22 22 24 25 26 26 27 27 27 29 30 31 31 33 34 34 35 36 38 39 40 42 42 42 42 43 44 45
20 21 21 22 22 22 22 22 22 22 23 23 23 23 22 23 23 24 26 28 28 28 28 29 30 32 33 34 35 36 37 37 37 39 39 40 41 42 43 44 46 46 47
22 22 23 23 23 23 23 23 23 23 23 23 24 24 24 25 25 26 28 29 30 30 31 32 33 33 35 36 36 37 38 38 39 39 40 41 43 44 45 46 47 47 47
23 23 23 24 25 24 24 24 24 24 24 23 24 25 25 26 27 28 29 30 31 32 33 34 34 34 34 35 36 36 37 38 39 41 42 43 45 46 47 48 49 49 50
24 24 24 24 24 25 25 25 25 25 24 25 25 25 25 26 28 29 30 30 31 31 31 32 33 33 34 35 36 37 37 39 41 42 44 46 47 48 49 50 50 51 52
25 25 26 26 25 25 25 25 26 26 26 26 26 26 27 27 27 28 30 30 30 31 31 32 34 34 35 37 39 39 40 41 43 44 46 47 48 49 50 50 52 53 54
25 25 25 26 27 28 27 26 26 26 27 27 27 27 27 27 27 28 29 30 31 32 34 34 35 36 37 39 39 40 42 44 45 45 47 48 49 50 51 52 53 54 54
25 24 24 24 24 25 25 26 27 27 28 28 28 28 28 28 28 28 30 31 33 33 34 35 36 37 39 39 40 42 43 44 45 46 47 48 49 50 51 52 52 53 53
24 24 24 23 23 23 24 25 25 26 26 26 26 26 27 27 28 30 31 32 32 33 34 35 36 37 39 40 41 42 43 44 45 46 47 48 49 49 50 50 50 50 50
23 23 22 21 21 21 22 23 23 24 24 25 25 26 28 29 29 30 31 32 32 33 35 36 37 38 39 40 41 42 43 44 45 45 46 47 47 48 48 48 48 47 46
22 21 21 21 21 21 22 22 22 24 25 26 26 27 28 29 29 30 31 32 33 34 36 36 37 38 39 40 41 42 43 43 43 44 45 46 46 46 46 45 44 43 42
20 20 20 20 20 21 21 21 22 23 25 25 26 27 28 29 30 30 31 32 33 34 34 36 37 38 39 40 40 41 42 42 42 43 43 44 44 43 42 41 41 40 40
17 17 18 19 19 20 21 21 22 23 24 25 26 27 28 29 29 30 31 32 33 34 35 36 37 38 38 39 39 40 40 40 41 41 41 41 40 39 38 38 37 37 37
17 18 18 19 20 21 22 23 24 24 25 25 26 27 28 29 30 30 31 32 33 35 35 36 36 36 37 37 37 38 38 39 38 38 37 37 36 35 35 35 34 34 34
17 19 19 20 20 21 22 23 23 24 25 26 27 28 29 30 30 31 32 33 34 34 34 34 34 34 35 35 35 35 36 36 36 35 35 35 34 34 33 33 32 32 32
17 18 19 20 20 21 21 22 23 24 26 27 28 29 29 30 31 32 32 33 33 33 32 32 32 33 33 33 33 33 34 33 33 32 32 32 31 31 30 30 30 29 29
16 17 17 18 20 21 23 24 25 26 27 27 28 29 30 30 30 31 31 31 31 31 31 31 31 31 31 31 31 31 31 30 30 30 29 29 29 28 28 27 27 26 26
17 18 19 21 22 23 24 25 25 26 27 28 28 29 29 30 29 29 29 30 30 29 29 29 29 29 29 29 29 28 28 28 28 27 27 27 26 26 25 25 25 25 25

GEFSGL_500_meanwind_144.txt.gz
Wind_Speed
8 8 7 7 7 7 7 9 11 12 14 15 16 17 18 19 20 20 20 21 21 21 20 21 21 21 21 21 20 21 21 21 20 21 21 21 21 21 22 23 22 23 23
9 9 8 8 7 8 8 10 11 12 13 14 16 17 18 19 20 21 21 21 21 22 23 23 24 23 23 23 23 23 23 23 23 23 24 23 24 24 25 25 25 25 25
10 10 10 9 9 10 10 11 12 13 14 14 15 17 18 19 20 21 21 22 22 23 24 24 25 25 25 25 25 25 26 26 26 26 26 27 27 27 27 28 28 28 28
12 11 11 11 11 11 12 13 14 15 15 15 16 17 18 18 19 21 22 22 23 24 25 26 26 27 26 27 27 27 27 27 28 29 29 30 30 30 30 30 31 31 32
13 13 12 12 12 13 13 14 15 16 17 17 17 18 19 19 20 21 23 24 25 26 26 26 27 27 27 27 28 29 29 30 30 31 31 31 31 32 32 33 33 33 34
15 15 14 14 14 15 15 16 17 18 19 19 20 20 21 21 22 22 23 24 25 25 25 26 27 27 28 29 30 30 31 31 32 32 33 33 33 34 34 34 34 35 35
16 16 16 16 16 16 16 17 17 17 19 20 20 21 21 22 22 22 24 24 25 25 26 27 27 28 29 30 31 32 32 33 33 33 34 34 35 35 36 36 37 38 38
18 18 18 18 18 17 18 18 18 19 20 21 22 22 23 23 23 23 23 24 25 26 26 27 28 29 29 30 31 31 32 33 33 34 35 36 37 37 38 38 38 40 41
20 20 20 20 19 19 19 19 20 21 21 21 22 23 23 24 25 25 25 26 26 27 28 28 29 29 31 32 32 32 32 33 35 36 37 38 38 39 39 41 41 42 42
22 21 21 21 21 21 21 21 21 21 21 22 23 23 24 25 25 26 27 27 28 29 29 30 31 31 32 33 33 33 34 34 35 36 37 38 39 40 41 41 42 43 44
24 23 22 22 22 22 23 23 22 22 23 24 24 25 26 26 26 27 27 28 29 30 31 32 32 32 33 33 34 35 36 36 36 36 36 37 39 41 41 41 42 43 44
25 24 24 23 23 24 24 24 24 24 25 25 26 27 26 26 27 28 29 29 30 30 30 31 32 32 33 34 35 36 36 36 36 37 37 37 38 39 40 41 42 43 44
25 25 25 25 25 25 25 25 25 26 27 27 28 28 27 27 28 28 28 29 30 31 31 32 32 32 33 34 35 35 35 36 37 38 38 39 40 41 42 42 43 44 46
26 26 26 26 26 25 25 25 26 28 28 28 28 28 28 28 28 29 28 28 29 30 31 32 32 32 33 34 34 35 36 37 38 39 40 40 41 42 43 44 45 46 47
27 27 26 26 25 25 26 26 27 27 27 27 28 27 28 28 28 29 29 28 29 31 31 31 32 34 34 35 35 36 38 39 40 41 41 41 42 43 44 45 46 47 48
27 27 26 25 25 26 26 26 27 27 27 26 27 27 27 27 28 28 28 28 29 31 32 34 35 36 37 36 37 37 39 40 41 42 41 42 43 44 44 45 46 46 47
26 26 26 25 25 25 25 25 26 26 26 26 26 26 26 26 27 28 29 29 30 31 33 34 35 36 36 36 37 38 40 40 41 41 41 42 43 43 44 45 45 46 46
25 25 25 25 25 25 25 24 24 24 24 24 24 25 26 26 27 28 29 29 30 31 32 33 33 34 35 37 38 39 40 40 40 41 41 42 42 43 44 44 44 44 45
23 23 23 23 23 24 24 24 23 23 23 23 24 25 25 26 27 28 29 29 30 30 31 32 33 35 36 37 38 39 39 40 40 40 40 41 41 42 42 42 42 43 43
22 22 23 23 23 24 23 23 23 23 23 24 25 25 26 27 27 28 28 29 30 31 31 33 34 35 36 37 37 37 38 38 38 39 39 39 40 40 40 40 40 40 40
21 21 21 21 21 21 21 22 22 22 23 24 25 25 26 26 27 28 28 29 30 32 33 34 35 35 35 36 36 36 37 37 37 37 37 37 37 38 38 38 38 37 36
19 19 19 20 20 21 21 22 23 23 24 25 26 26 27 28 29 29 30 31 32 32 33 34 34 35 35 35 35 35 35 35 35 35 35 36 36 36 35 34 33 33 32
18 18 18 19 20 21 21 22 24 24 25 25 26 26 27 28 29 30 30 31 31 32 33 34 34 34 34 33 33 33 33 33 33 33 34 33 33 32 32 31 31 30 30
16 17 17 18 20 20 21 22 23 23 24 25 26 27 28 29 29 30 31 31 32 32 32 32 32 32 31 31 31 31 31 31 31 31 31 31 31 30 30 29 29 29 28
16 16 17 18 19 20 21 22 23 25 25 26 27 28 29 29 30 30 31 31 31 30 30 30 29 29 28 28 29 29 29 29 29 29 29 29 29 28 28 27 27 27 27
16 16 17 18 19 21 23 24 25 26 27 28 28 28 29 29 29 30 30 29 29 29 28 27 27 27 27 27 27 27 27 27 27 27 27 27 26 26 26 25 25 25 25

GEFSGL_500_meanwind_150.txt.gz
Wind_Speed
8 7 7 6 6 6 6 7 8 9 10 12 13 15 16 16 16 17 18 19 19 19 19 20 20 20 20 20 20 20 20 20 21 21 22 22 22 22 22 23 24 24 24
8 8 7 7 6 6 6 7 8 10 11 12 13 14 14 16 17 18 19 20 20 20 21 22 22 21 21 22 22 22 22 23 24 25 25 24 24 25 25 26 26 27 28
9 8 8 8 7 7 7 8 9 10 12 13 14 15 16 17 18 18 19 20 21 21 22 23 22 22 23 23 24 25 25 25 25 26 26 27 27 28 29 29 29 30 31
10 9 9 9 9 10 9 10 10 10 11 13 14 15 17 18 18 18 20 21 22 22 22 23 24 24 24 25 25 26 26 26 26 27 27 28 30 30 31 32 33 33 34
11 11 11 11 11 11 11 11 11 11 12 13 14 16 17 18 18 19 20 21 22 23 22 23 24 25 26 26 26 26 27 27 28 28 28 29 30 31 32 32 33 35 36
13 13 13 12 13 12 12 12 12 13 13 14 14 16 17 17 18 20 21 22 22 23 23 23 24 25 26 27 27 27 28 28 29 30 30 30 31 32 33 34 35 36 37
15 15 14 15 14 14 13 14 14 15 15 15 16 18 18 19 20 20 21 22 23 23 23 23 24 25 26 27 27 28 28 29 30 30 31 31 32 33 34 35 35 36 37
17 17 17 17 16 16 15 16 15 16 16 16 16 16 17 18 20 20 21 22 23 23 23 23 24 26 26 27 28 28 29 30 31 32 33 34 34 34 34 35 37 37 38
19 19 19 18 18 18 18 18 18 17 17 17 17 18 19 19 20 21 22 22 23 24 25 26 27 27 28 29 29 30 31 31 32 33 33 34 34 35 35 36 37 37 39
20 19 19 19 19 19 19 19 19 19 19 19 19 19 20 21 22 22 24 24 25 25 26 27 28 29 30 30 30 31 31 32 33 34 34 34 35 36 36 37 37 37 38
21 21 21 20 20 20 20 20 20 21 21 21 22 22 21 21 22 23 24 25 25 26 27 27 28 28 29 30 31 32 32 33 34 34 34 34 35 35 35 36 37 38 39
22 22 21 21 21 20 21 21 21 22 22 23 23 23 23 23 24 25 25 26 26 26 27 28 28 29 30 31 32 32 32 33 33 33 34 35 36 37 38 38 39 40 41
23 22 22 22 22 22 22 22 22 22 22 23 23 24 24 25 25 25 26 26 27 28 28 29 30 31 31 31 31 31 32 33 34 35 36 37 37 38 39 39 40 41 43
23 23 23 23 22 23 23 22 22 22 23 23 24 25 25 25 25 25 26 26 27 28 29 30 30 31 32 32 32 32 33 34 35 37 37 38 39 39 40 40 42 43 45
24 24 24 24 23 23 23 23 23 24 24 24 24 25 25 25 26 26 26 27 27 28 29 29 30 31 31 32 33 34 34 35 36 37 37 38 40 41 42 42 44 45 46
24 24 24 24 23 23 23 24 24 24 24 24 24 24 25 25 26 25 26 26 27 27 28 29 31 31 32 33 34 35 36 36 37 38 39 40 41 42 43 44 44 45 45
23 23 23 23 23 23 23 23 23 23 23 23 24 24 25 26 26 26 26 27 27 28 29 29 30 31 32 33 33 34 34 36 37 38 39 40 41 42 42 43 42 43 42
23 22 22 22 21 21 21 22 22 22 22 23 24 24 24 25 25 26 26 27 27 28 28 29 30 31 32 32 33 34 35 37 37 38 39 40 40 40 40 40 40 40 40
22 22 21 20 20 21 21 21 22 22 23 23 23 24 24 24 24 25 25 26 27 28 28 29 30 31 32 33 34 35 36 37 37 38 38 38 38 37 38 37 38 38 38
21 20 19 19 20 20 20 21 21 21 21 22 22 23 23 23 24 25 26 27 28 28 29 30 31 32 33 34 34 35 35 35 35 35 35 34 34 35 35 35 36 36 36
19 19 19 19 19 19 19 19 20 20 21 21 22 23 23 24 25 26 27 28 29 30 31 31 32 33 33 33 33 33 33 33 32 32 32 32 32 33 33 33 33 33 33
18 17 17 17 18 19 19 20 20 20 20 21 22 24 25 26 27 27 28 29 30 31 31 32 32 32 32 32 31 31 31 31 31 30 30 30 31 31 31 31 31 31 31
16 16 16 17 18 18 19 19 19 20 21 22 23 24 25 26 27 27 28 29 29 30 31 31 31 31 30 30 30 30 30 30 29 29 29 29 29 29 29 28 28 28 28
15 15 16 17 17 18 18 19 19 20 21 22 24 25 26 27 28 28 29 29 30 30 30 30 30 29 29 29 29 28 28 28 28 27 27 27 27 27 27 27 26 27 26
14 15 15 16 17 17 17 18 19 21 22 24 25 26 26 27 27 27 28 29 29 29 29 29 28 28 28 28 27 26 26 26 26 25 25 25 25 25 26 25 25 25 25
13 14 15 15 16 16 18 19 21 23 24 24 25 25 26 26 26 27 27 27 27 27 27 26 26 26 25 25 24 24 24 24 24 24 24 24 24 24 24 24 24 24 24

GEFSGL_500_meanwind_156.txt.gz
Wind_Speed
8 8 8 7 7 6 6 6 7 9 10 11 11 12 13 15 16 17 18 18 18 19 19 20 20 21 22 22 23 23 23 24 24 24 24 25 26 26 26 26 26 27 27
9 9 8 8 7 7 7 7 7 8 8 9 11 12 14 15 16 17 19 19 20 20 21 22 22 23 24 24 24 24 25 26 27 27 27 27 28 28 28 29 29 30 30
9 9 9 9 9 8 8 8 8 9 10 10 11 13 15 16 17 18 19 20 20 21 22 23 23 24 25 25 25 26 26 27 28 28 29 29 30 30 30 30 31 31 32
10 10 9 10 10 9 9 10 10 11 11 12 13 14 16 17 18 19 20 21 21 22 23 23 24 25 26 25 26 27 27 28 29 29 29 30 30 31 31 32 33 33 34
11 11 11 11 12 12 12 12 12 13 14 14 15 16 18 19 20 21 22 23 23 23 23 24 24 25 26 26 27 27 28 28 29 30 30 30 30 31 32 33 33 34 35
12 12 13 13 14 14 14 14 15 15 15 16 17 17 19 20 21 22 23 24 24 24 24 24 25 26 27 28 28 29 29 30 30 31 31 31 32 33 33 34 35 35 35
14 15 15 15 16 16 15 16 17 17 17 17 18 18 19 19 20 21 22 22 23 24 25 25 26 27 28 29 29 29 30 31 31 32 32 33 34 34 35 36 36 37 37
16 16 16 16 17 18 17 18 18 19 19 19 19 19 20 20 20 21 22 23 23 24 25 26 27 28 28 29 29 30 31 31 32 33 34 35 35 36 37 37 38 38 38
17 17 17 18 18 18 19 19 20 20 20 20 21 21 20 21 22 22 23 24 25 26 27 27 27 27 28 29 30 31 32 33 34 35 36 36 36 36 37 38 38 38 39
19 19 19 19 19 19 20 20 20 21 21 21 22 22 23 23 23 23 24 25 26 26 26 27 27 28 29 30 31 32 33 34 34 35 35 36 36 36 37 38 39 39 39
19 19 20 20 20 20 21 22 22 22 22 23 23 23 24 24 24 24 25 26 26 27 28 29 30 30 30 32 33 33 34 34 35 35 35 35 35 36 38 39 39 39 40
20 20 20 21 21 22 23 23 23 24 24 24 24 24 24 24 24 25 26 27 28 29 29 29 30 31 32 32 33 33 34 34 35 35 35 36 37 38 39 40 40 41 42
22 21 21 22 23 24 24 24 25 25 25 25 25 25 25 25 25 27 28 29 30 29 29 30 30 31 32 32 32 33 33 34 35 36 36 37 38 39 40 41 41 42 42
22 22 23 24 24 24 25 25 26 26 26 26 25 26 26 26 27 28 29 30 30 29 30 31 31 32 32 32 32 32 34 35 36 37 38 38 40 40 41 41 42 43 44
22 22 23 23 24 24 25 25 25 26 26 26 26 26 26 27 28 27 28 29 29 30 30 30 31 31 32 32 32 34 34 35 36 36 37 38 39 40 41 42 43 43 43
22 23 23 24 24 25 25 25 25 26 26 26 26 26 26 27 27 28 28 29 29 30 30 31 31 31 31 32 33 33 34 35 36 36 37 38 40 41 41 42 42 41 41
23 23 23 23 24 24 24 25 25 25 25 25 25 26 26 26 27 27 28 28 28 28 29 30 30 30 31 32 33 34 34 35 36 36 38 39 39 39 39 39 39 39 39
22 23 23 23 23 24 24 24 24 23 23 24 24 25 26 26 26 27 27 27 27 28 28 29 30 31 31 32 33 33 34 35 35 36 37 37 37 37 37 37 37 37 37
23 23 22 23 23 23 23 23 23 22 23 24 24 25 25 25 25 26 26 27 28 28 28 29 30 31 32 33 34 34 35 35 35 35 35 35 35 35 35 35 35 34 34
22 22 22 22 22 22 22 22 22 22 23 24 24 24 24 25 25 26 27 28 28 29 30 31 31 32 33 33 34 34 34 34 34 34 34 34 34 34 33 33 33 33 33
22 22 21 21 21 21 22 22 22 22 23 23 23 24 25 25 26 27 28 28 29 29 30 30 31 31 32 32 32 32 32 33 32 32 32 32 31 31 31 31 31 31 31
21 20 20 20 21 21 21 22 22 22 23 23 24 24 25 26 26 26 27 28 29 29 29 30 31 31 31 31 31 31 31 30 30 30 30 30 30 30 30 29 29 28 28
19 19 19 19 20 20 21 21 21 22 22 23 23 24 24 25 25 26 27 28 29 29 30 30 30 30 29 30 29 29 29 29 29 29 28 28 28 28 27 27 27 26 26
18 19 19 19 19 20 20 20 21 21 21 21 22 23 23 24 25 26 27 27 27 28 28 28 28 27 28 28 28 28 28 28 27 27 27 27 27 26 26 25 25 25 25
17 18 19 19 20 20 20 20 21 21 22 22 23 24 24 25 25 26 26 26 26 26 26 26 26 26 27 26 26 26 26 25 25 25 25 25 24 24 24 24 24 24 24
17 17 18 18 19 19 19 20 21 22 22 23 24 25 25 25 25 25 25 25 25 25 25 25 25 25 26 25 25 24 24 24 23 23 23 23 23 23 23 23 23 24 24

GEFSGL_500_meanwind_162.txt.gz
Wind_Speed
8 7 7 6 6 7 7 8 8 8 9 10 11 12 13 13 14 14 16 17 18 19 20 21 21 22 23 23 23 23 24 24 25 26 26 26 27 27 28 28 28 29 29
9 9 8 8 8 7 7 8 9 9 10 10 10 11 13 13 14 15 16 18 19 20 21 21 22 23 24 24 25 25 25 26 26 26 27 28 28 28 29 29 30 30 30
11 10 10 10 9 9 9 9 10 11 11 11 11 12 13 14 15 16 17 19 20 21 22 23 23 24 24 25 26 26 27 27 27 28 29 30 29 29 31 31 32 32 31
12 12 12 11 11 11 11 10 11 11 12 12 13 14 15 16 17 18 19 20 21 22 23 24 24 24 25 26 27 28 28 27 28 29 30 30 30 31 32 32 33 33 33
14 13 13 13 13 13 13 13 13 13 14 14 15 15 16 17 19 20 21 21 22 23 23 24 25 25 26 27 27 27 28 28 28 29 30 30 31 32 32 32 33 33 33
15 15 15 15 15 15 15 15 15 15 15 16 17 18 19 19 20 21 22 23 23 24 25 26 26 27 27 27 28 28 29 28 29 30 30 31 32 33 34 34 35 35 35
16 16 16 16 16 16 17 17 17 17 17 18 18 19 20 21 21 23 24 25 25 25 25 25 26 27 27 26 27 27 28 28 29 30 30 31 32 33 35 35 36 37 37
17 17 17 17 17 17 18 18 18 18 19 19 20 20 21 22 23 23 24 25 25 26 26 26 27 27 27 27 28 28 29 30 31 32 32 32 33 34 35 36 37 37 37
19 18 18 18 18 18 19 19 20 20 20 21 21 22 22 24 24 25 25 25 26 26 27 27 27 27 27 29 29 30 31 31 32 33 33 34 34 34 35 36 36 37 38
21 20 19 19 20 20 20 21 21 21 21 22 23 24 24 25 25 26 26 26 27 27 28 28 28 29 29 29 30 31 31 32 33 33 34 35 35 35 35 36 37 38 39
22 21 21 21 21 22 22 22 22 23 23 23 24 24 25 26 26 26 27 27 28 28 28 29 29 30 30 30 31 31 31 31 32 33 34 35 36 37 37 37 37 39 40
23 22 23 22 22 22 22 23 23 24 25 25 25 25 26 26 27 27 28 28 28 28 29 30 30 30 31 31 31 31 32 32 33 34 35 35 36 36 36 37 38 39 40
24 23 23 23 23 23 24 24 25 26 25 25 25 26 27 27 28 29 28 28 29 28 29 30 30 30 31 31 32 32 33 33 33 34 34 34 35 35 36 37 37 38 38
24 24 23 23 23 24 25 25 25 26 26 27 27 27 27 28 28 28 28 28 28 28 29 29 29 30 31 31 31 31 32 33 33 33 33 34 34 34 35 35 36 37 38
24 24 23 23 23 24 24 25 26 26 26 26 26 26 27 27 27 27 27 27 28 28 28 28 29 30 30 30 30 31 32 32 32 32 33 33 33 34 34 35 36 37 38
25 24 24 24 25 25 25 26 26 26 26 26 26 26 26 26 27 27 27 27 27 27 27 28 28 29 30 30 31 32 31 31 32 32 33 33 34 34 34 35 36 36 36
25 25 26 26 25 25 26 25 26 26 26 25 26 26 25 25 26 26 26 27 27 28 28 28 28 28 29 30 30 31 31 32 32 32 32 33 33 34 35 35 35 35 35
26 25 26 25 25 25 25 26 25 25 25 25 25 25 25 25 26 26 27 27 28 28 28 28 28 29 29 30 31 31 31 31 31 32 32 33 33 33 34 34 33 33 33
25 25 25 24 25 26 25 25 25 25 25 26 25 25 25 25 26 26 27 28 28 28 29 29 29 28 29 29 29 30 30 30 30 31 32 32 32 32 32 31 31 31 30
24 24 23 24 25 25 25 25 25 25 24 25 25 25 25 26 26 27 27 28 28 28 28 28 28 28 28 28 29 29 29 30 30 30 30 30 30 30 29 29 29 29 29
24 24 24 24 23 23 24 23 23 23 24 24 25 25 26 26 26 27 27 27 27 27 27 27 28 28 28 28 28 28 28 28 28 28 28 28 28 28 27 27 27 28 28
24 24 23 22 22 23 22 22 23 23 23 24 24 25 25 25 26 26 26 26 26 26 26 26 26 26 26 27 27 27 26 26 26 26 26 26 26 26 26 26 26 26 26
23 23 22 22 21 21 21 22 22 22 23 24 24 24 25 25 25 25 25 25 26 26 26 26 26 26 26 26 25 25 25 25 25 25 25 25 24 24 25 25 25 24 24
22 22 22 21 21 21 21 22 22 22 23 24 24 24 24 24 25 25 25 26 26 26 26 26 26 26 25 25 25 25 25 25 25 25 24 24 24 25 24 24 24 24 24
21 21 21 21 21 20 21 21 22 22 23 23 23 23 24 24 24 25 25 25 25 25 25 25 25 25 24 24 25 25 25 25 24 24 24 24 25 24 24 24 24 24 24
21 20 20 19 19 20 21 21 21 22 23 23 23 23 23 24 24 24 25 25 25 25 25 25 25 25 25 25 25 25 24 24 24 24 24 24 24 24 24 24 24 24 24